User: anonymous   Login
Location: La Pernelle
(49.6188°N, 1.2999°W)
Time: 21:19:49
(UTC+00:00)
Language:

DS deb - Orbit

View from above orbital plane
View from above orbital plane
View from above satellite
View from above satellite

Ground track
Ground track

The orbit data is extracted from the following two-line orbital elements,

1 22599U 93014E   22021.56820675  .00001010  00000-0  27416-3 0  9995
2 22599  75.7566 125.0193 0148657 164.5277 196.0509 14.41959677507149
Epoch (UTC): 21 January 2022 13:38:13
Eccentricity: 0.0148657
inclination: 75.7566°
perigee height: 646 km
apogee height: 858 km
right ascension of ascending node: 125.0193°
argument of perigee: 164.5277°
revolutions per day: 14.41959677
mean anomaly at epoch: 196.0509°
orbit number at epoch: 50714

The dashed part of the orbit path shows where the satellite is in the earth's shadow,  

DLR